When you browse on this site, cookies collect data to enhance your experience and personalize the content and advertising you see.
Visit our Privacy Policy to learn more. By continuing to use the site, you agree to this use of cookies and data.

Hourly Weather San Juan

Today, 11 July, Saturday

Time Temperature Precipitation Wind Pressure Humidity
00:00 +8°C° 0 mm 2 mps 704 mmHg 69%
01:00 +8°C° 0 mm 1 mps 704 mmHg 73%
02:00 +8°C° 0 mm 1 mps 703 mmHg 74%
03:00 +7°C° 0 mm 1 mps 703 mmHg 75%
04:00 +7°C° 0 mm 1 mps 702 mmHg 76%
05:00 +7°C° 0 mm 1 mps 702 mmHg 76%
06:00 +7°C° 0 mm 1 mps 702 mmHg 76%
07:00 +5°C° 0 mm 0 mps 702 mmHg 76%
08:00 +9°C° 0 mm 1 mps 702 mmHg 66%
09:00 +11°C° 0 mm 1 mps 703 mmHg 57%
10:00 +13°C° 0 mm 2 mps 703 mmHg 48%
11:00 +14°C° 0 mm 2 mps 702 mmHg 43%
12:00 +14°C° 0 mm 3 mps 702 mmHg 39%
13:00 +17°C° 0 mm 3 mps 701 mmHg 35%
14:00 +17°C° 0 mm 3 mps 701 mmHg 34%
15:00 +17°C° 0 mm 2 mps 701 mmHg 33%
16:00 +17°C° 0 mm 2 mps 701 mmHg 32%
17:00 +16°C° 0 mm 2 mps 701 mmHg 36%
18:00 +14°C° 0 mm 2 mps 701 mmHg 40%
19:00 +12°C° 0 mm 2 mps 701 mmHg 43%
20:00 +12°C° 0 mm 2 mps 702 mmHg 44%
21:00 +11°C° 0 mm 1 mps 702 mmHg 44%
22:00 +11°C° 0 mm 1 mps 702 mmHg 45%
23:00 +10°C° 0 mm 2 mps 703 mmHg 46%

Tomorrow, 12 July, Sunday

Time Temperature Precipitation Wind Pressure Humidity
00:00 +9°C° 0 mm 2 mps 703 mmHg 48%
01:00 +9°C° 0 mm 3 mps 703 mmHg 49%
02:00 +9°C° 0 mm 2 mps 703 mmHg 51%
03:00 +8°C° 0 mm 2 mps 703 mmHg 52%
04:00 +8°C° 0 mm 2 mps 703 mmHg 53%
05:00 +7°C° 0 mm 2 mps 704 mmHg 52%
06:00 +8°C° 0 mm 1 mps 704 mmHg 51%
07:00 +8°C° 0 mm 1 mps 705 mmHg 50%
08:00 +10°C° 0 mm 1 mps 705 mmHg 46%
09:00 +12°C° 0 mm 2 mps 705 mmHg 41%
10:00 +15°C° 0 mm 2 mps 706 mmHg 37%
11:00 +14°C° 0 mm 3 mps 705 mmHg 36%
12:00 +16°C° 0 mm 3 mps 705 mmHg 36%
13:00 +15°C° 0 mm 4 mps 705 mmHg 35%
14:00 +15°C° 0 mm 4 mps 705 mmHg 37%
15:00 +15°C° 0 mm 4 mps 705 mmHg 39%
16:00 +14°C° 0 mm 3 mps 705 mmHg 40%
17:00 +13°C° 0 mm 3 mps 705 mmHg 44%
18:00 +13°C° 0 mm 2 mps 705 mmHg 48%
19:00 +10°C° 0 mm 2 mps 705 mmHg 51%
20:00 +11°C° 0 mm 1 mps 705 mmHg 54%
21:00 +10°C° 0 mm 1 mps 705 mmHg 56%
22:00 +9°C° 0 mm 1 mps 705 mmHg 58%
23:00 +9°C° 0 mm 1 mps 705 mmHg 60%

Day after tomorrow, 13 July, Monday

Time Temperature Precipitation Wind Pressure Humidity
00:00 +8°C° 0 mm 1 mps 705 mmHg 61%
01:00 +8°C° 0 mm 1 mps 705 mmHg 62%
02:00 +7°C° 0 mm 1 mps 705 mmHg 64%
03:00 +7°C° 0 mm 1 mps 705 mmHg 65%
04:00 +6°C° 0 mm 1 mps 705 mmHg 66%
05:00 +6°C° 0 mm 1 mps 705 mmHg 65%
06:00 +6°C° 0 mm 1 mps 706 mmHg 65%
07:00 +6°C° 0 mm 1 mps 706 mmHg 64%
08:00 +8°C° 0 mm 2 mps 707 mmHg 56%
09:00 +10°C° 0 mm 3 mps 707 mmHg 49%
10:00 +12°C° 0 mm 4 mps 708 mmHg 42%
11:00 +13°C° 0 mm 4 mps 708 mmHg 40%
12:00 +13°C° 0 mm 5 mps 708 mmHg 38%
13:00 +14°C° 0 mm 5 mps 707 mmHg 36%
14:00 +14°C° 0 mm 5 mps 708 mmHg 36%
15:00 +13°C° 0 mm 5 mps 708 mmHg 37%
16:00 +13°C° 0 mm 5 mps 708 mmHg 38%
17:00 +10°C° 0 mm 5 mps 709 mmHg 46%
18:00 +10°C° 0 mm 4 mps 709 mmHg 54%
19:00 +8°C° 0 mm 3 mps 710 mmHg 62%
20:00 +7°C° 0 mm 3 mps 710 mmHg 66%
21:00 +7°C° 0 mm 2 mps 710 mmHg 69%
22:00 +6°C° 0 mm 2 mps 710 mmHg 72%
23:00 +5°C° 0 mm 2 mps 710 mmHg 74%

14 July, Tuesday

Time Temperature Precipitation Wind Pressure Humidity
00:00 +6°C° 0 mm 1 mps 710 mmHg 76%
01:00 +5°C° 0 mm 1 mps 709 mmHg 78%
02:00 +5°C° 0 mm 1 mps 709 mmHg 80%
03:00 +3°C° 0 mm 0 mps 709 mmHg 81%
04:00 +3°C° 0 mm 0 mps 708 mmHg 82%
05:00 +3°C° 0 mm 0 mps 708 mmHg 81%
06:00 +5°C° 0 mm 1 mps 708 mmHg 79%
07:00 +5°C° 0 mm 1 mps 708 mmHg 77%
08:00 +6°C° 0 mm 2 mps 708 mmHg 68%
09:00 +9°C° 0 mm 2 mps 708 mmHg 58%
10:00 +11°C° 0 mm 3 mps 709 mmHg 48%
11:00 +13°C° 0 mm 3 mps 708 mmHg 44%
12:00 +14°C° 0 mm 3 mps 707 mmHg 41%
13:00 +17°C° 0 mm 3 mps 706 mmHg 37%
14:00 +17°C° 0 mm 3 mps 706 mmHg 37%
15:00 +17°C° 0 mm 3 mps 705 mmHg 38%
16:00 +17°C° 0 mm 2 mps 705 mmHg 38%
17:00 +15°C° 0 mm 2 mps 705 mmHg 45%
18:00 +12°C° 0 mm 1 mps 705 mmHg 52%
19:00 +10°C° 0 mm 1 mps 705 mmHg 59%
20:00 +10°C° 0 mm 1 mps 705 mmHg 62%
21:00 +9°C° 0 mm 1 mps 704 mmHg 64%
22:00 +8°C° 0 mm 0 mps 704 mmHg 66%
23:00 +7°C° 0 mm 0 mps 704 mmHg 68%

15 July, Wednesday

Time Temperature Precipitation Wind Pressure Humidity
00:00 +8°C° 0 mm 1 mps 704 mmHg 69%
01:00 +8°C° 0 mm 1 mps 704 mmHg 71%
02:00 +6°C° 0 mm 0 mps 703 mmHg 73%
03:00 +6°C° 0 mm 0 mps 703 mmHg 74%
04:00 +5°C° 0 mm 0 mps 703 mmHg 75%
05:00 +5°C° 0 mm 0 mps 703 mmHg 74%
06:00 +5°C° 0 mm 0 mps 704 mmHg 73%
07:00 +5°C° 0 mm 0 mps 704 mmHg 72%
08:00 +8°C° 0 mm 0 mps 705 mmHg 62%
09:00 +12°C° 0 mm 1 mps 705 mmHg 52%
10:00 +15°C° 0 mm 1 mps 705 mmHg 42%
11:00 +16°C° 0 mm 1 mps 705 mmHg 39%
12:00 +17°C° 0 mm 2 mps 705 mmHg 36%
13:00 +18°C° 0 mm 2 mps 704 mmHg 33%
14:00 +18°C° 0 mm 2 mps 704 mmHg 32%
15:00 +18°C° 0 mm 3 mps 704 mmHg 31%
16:00 +17°C° 0 mm 3 mps 705 mmHg 30%
17:00 +16°C° 0 mm 3 mps 705 mmHg 34%
18:00 +14°C° 0 mm 2 mps 705 mmHg 38%
19:00 +12°C° 0 mm 2 mps 705 mmHg 41%
20:00 +10°C° 0 mm 2 mps 705 mmHg 44%
21:00 +11°C° 0 mm 1 mps 705 mmHg 46%
22:00 +10°C° 0 mm 1 mps 705 mmHg 49%
23:00 +9°C° 0 mm 1 mps 705 mmHg 51%

16 July, Thursday

Time Temperature Precipitation Wind Pressure Humidity
00:00 +9°C° 0 mm 1 mps 705 mmHg 52%
01:00 +8°C° 0 mm 1 mps 704 mmHg 54%
02:00 +8°C° 0 mm 1 mps 704 mmHg 56%
03:00 +7°C° 0 mm 1 mps 704 mmHg 59%
04:00 +7°C° 0 mm 1 mps 703 mmHg 61%
05:00 +7°C° 0 mm 1 mps 703 mmHg 60%
06:00 +7°C° 0 mm 1 mps 704 mmHg 60%
07:00 +7°C° 0 mm 1 mps 704 mmHg 60%
08:00 +9°C° 0 mm 1 mps 704 mmHg 53%
09:00 +12°C° 0 mm 1 mps 704 mmHg 46%
10:00 +14°C° 0 mm 2 mps 704 mmHg 38%
11:00 +15°C° 0 mm 2 mps 704 mmHg 36%
12:00 +16°C° 0 mm 2 mps 703 mmHg 34%
13:00 +17°C° 0 mm 2 mps 703 mmHg 31%
14:00 +17°C° 0 mm 2 mps 702 mmHg 32%
15:00 +17°C° 0 mm 2 mps 702 mmHg 32%
16:00 +17°C° 0 mm 3 mps 702 mmHg 33%
17:00 +14°C° 0 mm 3 mps 702 mmHg 37%
18:00 +14°C° 0 mm 2 mps 702 mmHg 41%
19:00 +12°C° 0 mm 2 mps 703 mmHg 45%
20:00 +12°C° 0 mm 2 mps 703 mmHg 46%
21:00 +10°C° 0 mm 2 mps 703 mmHg 47%
22:00 +10°C° 0 mm 1 mps 703 mmHg 48%
23:00 +10°C° 0 mm 1 mps 704 mmHg 53%
Show more